Simultaneous Nadir Overpasses (SNOs) Predictions

Prediction of SNOs between GOES-16 and NOAA-19 Satellite Orbit:

Table of predicted SNOs for the next 14.0 days since TLE Epoch: 3/5/2022
Index Date Time (GOES-16) GOES-16 Lat,Lon NOAA-19 Lat,Lon Distance(km) Time Diff (sec)
1 03/06/2022 12:51:46 0.02, -75.21 0.96, -79.25 461.20 80
2 03/07/2022 12:39:58 0.01, -75.21 0.31, -76.36 132.51 80
3 03/08/2022 12:25:30 0.01, -75.21 -0.39, -73.49 196.34 80
4 03/11/2022 00:49:01 -0.02, -75.20 -0.77, -78.43 368.79 80
5 03/12/2022 00:37:13 -0.02, -75.20 -0.07, -75.56 39.76 80
6 03/13/2022 00:22:45 -0.01, -75.21 0.58, -72.67 289.66 80
7 03/15/2022 12:45:57 0.03, -75.25 0.56, -77.53 260.75 80
8 03/16/2022 12:31:28 0.03, -75.26 -0.09, -74.65 69.20 80
9 03/17/2022 12:19:41 0.03, -75.27 -0.80, -71.78 399.17 80
10 03/19/2022 00:55:00 -0.03, -75.27 -1.01, -79.59 493.30 80
